sat.trackr.live / text

‹ back to catalog

STARLINK-31271

NORAD 58827 · 2024-017B

PAYLOAD ACTIVE UNKNOWN

§ Identity

Operator
Country
US
Launch date
2024-01-24
Launch site
AFWTR
Launch vehicle
Mass (kg)
RCS (m²)

Purposes: comms

External: N2YO · Heavens-Above · Gunter

§ Orbital elements

Epoch: 2026-05-25T04:16:11.329824Z

Period
94.10 min
Inclination
53.1578°
Eccentricity
0.0001296
Mean motion
15.30214062 rev/d
Perigee alt
474.3 km
Apogee alt
476.1 km
Semi-major
6,853.3 km
B*
6.1107e-4
RAAN
209.2737°
Arg perigee
86.1468°
Mean anomaly
273.9681°
Rev number
13,176

§ Raw data

STARLINK-312711 58827U 24017B   26145.17790891  .00017790  00000+0  61107-3 0  99952 58827  53.1578 209.2737 0001296  86.1468 273.9681 15.30214062131760

JSON: /api/v1/satellites/58827 · /tle

For live sub-satellite position, see the globe view (requires WebGL).

§ Visibility from observer

Set your observer location to see the next 7 days of passes ≥ 10°. The values pass through the URL so the page stays shareable.

No JS? Fill the form by hand. The geolocation button needs JavaScript.